AMC-15 1 28446U 04041A 21065.60756909 -.00000104 00000-0 00000-0 0 9995 2 28446 0.0507 311.9174 0002631 44.4765 281.8017 1.00271745 59981 BREEZE-M R/B 1 28447U 04041B 21065.77197634 -.00000219 00000-0 00000+0 0 9994 2 28447 17.7932 71.9408 5155653 102.2828 315.9021 1.86973533111940 BREEZE-M DEB [TANK] 1 28477U 04041C 21064.13485497 .00000132 00000-0 00000-0 0 9997 2 28477 46.9971 164.7579 6917393 95.5944 340.1256 2.23821191133826